EWG4JP EDDS-EDDB

Flight info

Callsign EWG4JP
Flight time 1h 0m
Altitude 35000
Route OKIBA4B OKIBA N851 RIMKI Z99 LOHRE N746 TIKNI T279 TAMEB T278 KLF KLF1R
Aircraft A319/M-SDE3FGHIRWY/LB1

Departure

Time 2026-05-06 16:19
Airport Stuttgart Airport (EDDS)

Arrival

Time 2026-05-06 17:19
Airport Berlin Brandenburg Airport (EDDB)
Time Latitude Longitude Altitude Speed Heading
2026-05-06 15:31 48.68990 9.19898 1286 ft 0 kts 343°
2026-05-06 16:01 48.68969 9.19909 1290 ft 4 kts 326°
2026-05-06 16:01 48.68953 9.19934 1288 ft 4 kts 288°
2026-05-06 16:02 48.68952 9.19963 1291 ft 1 kts 236°
2026-05-06 16:02 48.68953 9.19964 1291 ft 0 kts 236°
2026-05-06 16:08 48.68951 9.19960 1291 ft 2 kts 236°
2026-05-06 16:08 48.68945 9.19946 1289 ft 3 kts 236°
2026-05-06 16:08 48.68924 9.19898 1289 ft 7 kts 237°
2026-05-06 16:08 48.68883 9.19869 1285 ft 7 kts 167°
2026-05-06 16:09 48.68835 9.19893 1286 ft 8 kts 150°
2026-05-06 16:09 48.68822 9.19958 1285 ft 6 kts 80°
2026-05-06 16:09 48.68834 9.20020 1290 ft 7 kts 74°
2026-05-06 16:09 48.68852 9.20117 1285 ft 12 kts 74°
2026-05-06 16:10 48.68881 9.20265 1286 ft 17 kts 73°
2026-05-06 16:10 48.68916 9.20453 1285 ft 19 kts 74°
2026-05-06 16:10 48.68951 9.20635 1289 ft 18 kts 74°
2026-05-06 16:10 48.68984 9.20807 1287 ft 16 kts 74°
2026-05-06 16:11 48.69014 9.20968 1285 ft 15 kts 74°
2026-05-06 16:11 48.69042 9.21114 1285 ft 14 kts 73°
2026-05-06 16:11 48.69067 9.21248 1288 ft 13 kts 74°
2026-05-06 16:11 48.69091 9.21371 1285 ft 13 kts 74°
2026-05-06 16:12 48.69120 9.21528 1287 ft 18 kts 74°
2026-05-06 16:12 48.69156 9.21716 1285 ft 18 kts 74°
2026-05-06 16:12 48.69190 9.21897 1285 ft 17 kts 74°
2026-05-06 16:12 48.69224 9.22076 1289 ft 20 kts 74°
2026-05-06 16:13 48.69266 9.22298 1290 ft 24 kts 74°
2026-05-06 16:13 48.69318 9.22571 1285 ft 30 kts 74°
2026-05-06 16:13 48.69376 9.22876 1285 ft 30 kts 74°
2026-05-06 16:13 48.69432 9.23173 1285 ft 29 kts 74°
2026-05-06 16:14 48.69487 9.23459 1285 ft 28 kts 74°
2026-05-06 16:14 48.69539 9.23732 1288 ft 26 kts 74°
2026-05-06 16:14 48.69588 9.23990 1285 ft 25 kts 74°
2026-05-06 16:14 48.69609 9.24151 1285 ft 12 kts 103°
2026-05-06 16:15 48.69577 9.24246 1286 ft 9 kts 117°
2026-05-06 16:15 48.69548 9.24291 1285 ft 0 kts 148°
2026-05-06 16:17 48.69547 9.24292 1285 ft 1 kts 151°
2026-05-06 16:17 48.69522 9.24304 1285 ft 7 kts 163°
2026-05-06 16:17 48.69466 9.24324 1286 ft 8 kts 176°
2026-05-06 16:18 48.69408 9.24301 1287 ft 9 kts 208°
2026-05-06 16:18 48.69373 9.24226 1287 ft 9 kts 253°
2026-05-06 16:18 48.69336 9.24025 1289 ft 44 kts 254°
2026-05-06 16:18 48.69196 9.23294 1286 ft 99 kts 254°
2026-05-06 16:19 48.68957 9.22039 1290 ft 149 kts 253°
2026-05-06 16:19 48.68682 9.20496 1850 ft 152 kts 255°
2026-05-06 16:19 48.68406 9.18959 2660 ft 151 kts 252°
2026-05-06 16:19 48.68092 9.17353 3164 ft 170 kts 252°
2026-05-06 16:20 48.67730 9.15530 3573 ft 192 kts 252°
2026-05-06 16:20 48.67314 9.13458 3961 ft 218 kts 252°
2026-05-06 16:20 48.66989 9.11150 4749 ft 231 kts 271°
2026-05-06 16:20 48.67546 9.08846 5687 ft 240 kts 301°
2026-05-06 16:21 48.68642 9.06890 6479 ft 251 kts 320°
2026-05-06 16:21 48.70290 9.05821 6819 ft 271 kts 345°
2026-05-06 16:21 48.72142 9.05100 7579 ft 278 kts 342°
2026-05-06 16:21 48.74034 9.04404 8475 ft 283 kts 352°
2026-05-06 16:22 48.76018 9.04575 9348 ft 290 kts 12°
2026-05-06 16:22 48.77875 9.05843 10161 ft 297 kts 35°
2026-05-06 16:22 48.79336 9.08093 10660 ft 316 kts 54°
2026-05-06 16:22 48.80647 9.10913 10957 ft 340 kts 55°
2026-05-06 16:23 48.82034 9.13943 11382 ft 354 kts 55°
2026-05-06 16:23 48.83451 9.17042 12056 ft 360 kts 55°
2026-05-06 16:23 48.84888 9.20176 12738 ft 364 kts 55°
2026-05-06 16:23 48.86347 9.23343 13444 ft 368 kts 56°
2026-05-06 16:24 48.87838 9.26548 13983 ft 375 kts 54°
2026-05-06 16:24 48.89638 9.29435 14585 ft 379 kts 40°
2026-05-06 16:24 48.91850 9.31644 15198 ft 383 kts 26°
2026-05-06 16:24 48.94363 9.33039 15869 ft 386 kts 12°
2026-05-06 16:25 48.97039 9.33535 16582 ft 390 kts 359°
2026-05-06 16:25 48.99758 9.33356 17272 ft 394 kts 356°
2026-05-06 16:25 49.02510 9.33136 17949 ft 398 kts 356°
2026-05-06 16:25 49.05285 9.32915 18504 ft 402 kts 356°
2026-05-06 16:26 49.08092 9.32689 19023 ft 405 kts 356°
2026-05-06 16:26 49.10891 9.32460 19547 ft 409 kts 356°
2026-05-06 16:26 49.13748 9.32226 20058 ft 413 kts 356°
2026-05-06 16:26 49.16631 9.31993 20580 ft 416 kts 356°
2026-05-06 16:27 49.19521 9.31761 21174 ft 417 kts 356°
2026-05-06 16:27 49.22428 9.31526 21742 ft 420 kts 356°
2026-05-06 16:27 49.25362 9.31298 22243 ft 423 kts 356°
2026-05-06 16:27 49.28306 9.31078 22735 ft 426 kts 356°
2026-05-06 16:28 49.31279 9.30857 23223 ft 428 kts 356°
2026-05-06 16:28 49.34267 9.30635 23643 ft 431 kts 357°
2026-05-06 16:28 49.37282 9.30804 24033 ft 435 kts
2026-05-06 16:28 49.40299 9.31254 24443 ft 437 kts
2026-05-06 16:29 49.43331 9.31706 24840 ft 439 kts
2026-05-06 16:29 49.46393 9.32160 25214 ft 443 kts
2026-05-06 16:29 49.49438 9.32609 25588 ft 446 kts
2026-05-06 16:29 49.52527 9.33062 25956 ft 449 kts
2026-05-06 16:30 49.55654 9.33518 26331 ft 452 kts
2026-05-06 16:30 49.57777 9.33829 26577 ft 454 kts
2026-05-06 16:30 49.61961 9.34446 27062 ft 458 kts
2026-05-06 16:30 49.65140 9.34918 27429 ft 461 kts
2026-05-06 16:31 49.68347 9.35398 27788 ft 463 kts
2026-05-06 16:31 49.71565 9.35886 28133 ft 466 kts
2026-05-06 16:31 49.74805 9.36464 28477 ft 470 kts
2026-05-06 16:31 49.77999 9.37575 28796 ft 473 kts 13°
2026-05-06 16:32 49.81215 9.38814 29118 ft 476 kts 13°
2026-05-06 16:32 49.84435 9.40052 29489 ft 477 kts 13°
2026-05-06 16:32 49.87627 9.41280 29842 ft 479 kts 13°
2026-05-06 16:32 49.90860 9.42519 30115 ft 481 kts 13°
2026-05-06 16:33 49.94122 9.43767 30420 ft 482 kts 13°
2026-05-06 16:33 49.97379 9.45016 30774 ft 483 kts 13°
2026-05-06 16:33 50.00639 9.46273 31122 ft 483 kts 13°
2026-05-06 16:34 50.07003 9.49618 31865 ft 483 kts 26°
2026-05-06 16:34 50.09909 9.52252 32264 ft 483 kts 34°
2026-05-06 16:34 50.12639 9.55311 32615 ft 483 kts 36°
2026-05-06 16:34 50.15364 9.58379 32950 ft 484 kts 36°
2026-05-06 16:35 50.18089 9.61439 33303 ft 484 kts 36°
2026-05-06 16:35 50.20830 9.64517 33659 ft 485 kts 36°
2026-05-06 16:35 50.23575 9.67601 33975 ft 485 kts 36°
2026-05-06 16:35 50.26311 9.70683 34266 ft 485 kts 36°
2026-05-06 16:36 50.29051 9.73780 34542 ft 486 kts 36°
2026-05-06 16:36 50.31792 9.76885 34739 ft 486 kts 36°
2026-05-06 16:36 50.34531 9.79991 34780 ft 485 kts 36°
2026-05-06 16:37 50.39965 9.86210 34771 ft 483 kts 39°
2026-05-06 16:37 50.44755 9.93589 34774 ft 482 kts 47°
2026-05-06 16:38 50.48574 9.99941 34778 ft 481 kts 47°
2026-05-06 16:38 50.53910 10.08819 34770 ft 480 kts 47°
2026-05-06 16:39 50.58491 10.16468 34767 ft 480 kts 47°
2026-05-06 16:39 50.62313 10.22880 34765 ft 480 kts 48°
2026-05-06 16:40 50.66408 10.31051 34737 ft 477 kts 62°
2026-05-06 16:40 50.69570 10.40239 34736 ft 478 kts 63°
2026-05-06 16:41 50.72754 10.49466 34740 ft 479 kts 63°
2026-05-06 16:41 50.75938 10.58731 34743 ft 480 kts 63°
2026-05-06 16:42 50.79099 10.68035 34752 ft 480 kts 63°
2026-05-06 16:42 50.82253 10.77357 34756 ft 481 kts 63°
2026-05-06 16:43 50.85413 10.86687 34754 ft 480 kts 63°
2026-05-06 16:43 50.88546 10.95967 34756 ft 481 kts 64°
2026-05-06 16:44 50.91712 11.05404 34759 ft 482 kts 64°
2026-05-06 16:44 50.94851 11.14799 34762 ft 482 kts 64°
2026-05-06 16:45 50.97969 11.24155 34759 ft 483 kts 64°
2026-05-06 16:45 51.01103 11.33588 34749 ft 483 kts 64°
2026-05-06 16:46 51.04223 11.43030 34731 ft 483 kts 64°
2026-05-06 16:46 51.07342 11.52502 34738 ft 484 kts 64°
2026-05-06 16:47 51.10457 11.62027 34742 ft 485 kts 64°
2026-05-06 16:47 51.13569 11.71580 34751 ft 486 kts 64°
2026-05-06 16:48 51.16660 11.81069 34753 ft 486 kts 64°
2026-05-06 16:48 51.19772 11.90637 34755 ft 486 kts 63°
2026-05-06 16:49 51.22499 11.97000 34780 ft 488 kts 50°
2026-05-06 16:49 51.27163 12.04896 34751 ft 488 kts 46°
2026-05-06 16:50 51.31846 12.12760 34760 ft 489 kts 46°
2026-05-06 16:50 51.36478 12.20602 34498 ft 482 kts 47°
2026-05-06 16:50 51.38761 12.24476 34320 ft 473 kts 46°
2026-05-06 16:51 51.41009 12.28290 33895 ft 469 kts 47°
2026-05-06 16:51 51.43235 12.32070 33327 ft 464 kts 47°
2026-05-06 16:51 51.45439 12.35820 32716 ft 459 kts 47°
2026-05-06 16:51 51.47609 12.39524 31984 ft 453 kts 47°
2026-05-06 16:52 51.49778 12.43230 30577 ft 462 kts 48°
2026-05-06 16:52 51.52026 12.47074 28537 ft 482 kts 48°
2026-05-06 16:52 51.54341 12.51040 27294 ft 488 kts 47°
2026-05-06 16:52 51.56632 12.54964 27052 ft 473 kts 47°
2026-05-06 16:53 51.58843 12.58757 26907 ft 456 kts 47°
2026-05-06 16:53 51.60966 12.62400 26791 ft 437 kts 47°
2026-05-06 16:53 51.63011 12.65909 26596 ft 423 kts 47°
2026-05-06 16:53 51.65004 12.69338 26231 ft 416 kts 47°
2026-05-06 16:54 51.66964 12.72720 25768 ft 411 kts 47°
2026-05-06 16:54 51.68873 12.76021 25206 ft 405 kts 47°
2026-05-06 16:54 51.70779 12.79327 24590 ft 400 kts 47°
2026-05-06 16:54 51.72660 12.82595 23997 ft 395 kts 47°
2026-05-06 16:55 51.74516 12.85824 23400 ft 390 kts 47°
2026-05-06 16:55 51.76351 12.89023 22698 ft 385 kts 47°
2026-05-06 16:55 51.78056 12.92327 21999 ft 380 kts 56°
2026-05-06 16:55 51.79458 12.95911 21306 ft 376 kts 60°
2026-05-06 16:56 51.80804 12.99505 20641 ft 372 kts 60°
2026-05-06 16:56 51.82141 13.03064 19965 ft 369 kts 60°
2026-05-06 16:56 51.83468 13.06596 19322 ft 365 kts 60°
2026-05-06 16:56 51.84776 13.10083 18709 ft 361 kts 60°
2026-05-06 16:57 51.86071 13.13542 18068 ft 358 kts 60°
2026-05-06 16:57 51.87355 13.16983 17390 ft 354 kts 60°
2026-05-06 16:57 51.88617 13.20370 16831 ft 349 kts 60°
2026-05-06 16:57 51.89871 13.23743 16232 ft 347 kts 60°
2026-05-06 16:58 51.91106 13.27072 15713 ft 342 kts 60°
2026-05-06 16:58 51.92322 13.30350 15204 ft 337 kts 60°
2026-05-06 16:58 51.93517 13.33580 14716 ft 331 kts 60°
2026-05-06 16:58 51.94694 13.36761 14217 ft 327 kts 60°
2026-05-06 16:59 51.95842 13.39861 13740 ft 322 kts 60°
2026-05-06 16:59 51.96985 13.42954 13217 ft 318 kts 59°
2026-05-06 16:59 51.98343 13.45729 12728 ft 312 kts 39°
2026-05-06 16:59 52.00167 13.47552 12263 ft 310 kts 18°
2026-05-06 17:00 52.02263 13.48252 11778 ft 307 kts 357°
2026-05-06 17:00 52.04378 13.47796 11054 ft 311 kts 336°
2026-05-06 17:00 52.06245 13.46170 10766 ft 298 kts 317°
2026-05-06 17:00 52.07717 13.43891 10396 ft 288 kts 304°
2026-05-06 17:01 52.08903 13.41364 10149 ft 272 kts 303°
2026-05-06 17:01 52.10015 13.38985 9987 ft 257 kts 303°
2026-05-06 17:01 52.11083 13.36696 9626 ft 252 kts 303°
2026-05-06 17:01 52.12133 13.34437 9150 ft 249 kts 303°
2026-05-06 17:02 52.13173 13.32194 8678 ft 247 kts 303°
2026-05-06 17:02 52.14197 13.29973 8267 ft 243 kts 303°
2026-05-06 17:02 52.15202 13.27794 7936 ft 239 kts 303°
2026-05-06 17:02 52.16200 13.25631 7629 ft 239 kts 303°
2026-05-06 17:03 52.17199 13.23468 7343 ft 238 kts 303°
2026-05-06 17:03 52.18102 13.21227 7049 ft 234 kts 290°
2026-05-06 17:03 52.18467 13.18680 6767 ft 229 kts 270°
2026-05-06 17:03 52.18245 13.16193 6714 ft 226 kts 251°
2026-05-06 17:04 52.17676 13.13805 6662 ft 226 kts 249°
2026-05-06 17:04 52.17099 13.11425 6610 ft 226 kts 249°
2026-05-06 17:04 52.16525 13.09045 6558 ft 225 kts 249°
2026-05-06 17:04 52.15950 13.06669 6513 ft 225 kts 249°
2026-05-06 17:05 52.15375 13.04301 6465 ft 225 kts 249°
2026-05-06 17:05 52.14800 13.01933 6418 ft 225 kts 249°
2026-05-06 17:05 52.14225 12.99566 6368 ft 225 kts 249°
2026-05-06 17:05 52.13650 12.97207 6317 ft 225 kts 249°
2026-05-06 17:06 52.13073 12.94840 6209 ft 225 kts 249°
2026-05-06 17:06 52.12497 12.92484 6093 ft 224 kts 249°
2026-05-06 17:06 52.11921 12.90123 5959 ft 224 kts 249°
2026-05-06 17:06 52.11348 12.87766 5842 ft 224 kts 249°
2026-05-06 17:07 52.10772 12.85412 5823 ft 225 kts 249°
2026-05-06 17:07 52.10193 12.83050 5822 ft 225 kts 249°
2026-05-06 17:07 52.09609 12.80673 5822 ft 225 kts 249°
2026-05-06 17:07 52.09031 12.78308 5821 ft 225 kts 249°
2026-05-06 17:08 52.08457 12.75973 5819 ft 225 kts 249°
2026-05-06 17:08 52.07875 12.73606 5821 ft 226 kts 249°
2026-05-06 17:08 52.07577 12.71125 5813 ft 226 kts 274°
2026-05-06 17:08 52.08176 12.68765 5821 ft 232 kts 308°
2026-05-06 17:09 52.09523 12.67308 5828 ft 237 kts 335°
2026-05-06 17:09 52.11062 12.66311 5822 ft 238 kts 335°
2026-05-06 17:09 52.12654 12.65574 5816 ft 242 kts 355°
2026-05-06 17:09 52.14303 12.66195 5816 ft 250 kts 28°
2026-05-06 17:10 52.15513 12.68206 5645 ft 253 kts 62°
2026-05-06 17:10 52.16194 12.70856 5497 ft 253 kts 68°
2026-05-06 17:10 52.16841 12.73519 5353 ft 253 kts 68°
2026-05-06 17:10 52.17484 12.76173 5219 ft 252 kts 68°
2026-05-06 17:11 52.18125 12.78825 5091 ft 251 kts 68°
2026-05-06 17:11 52.18758 12.81426 4966 ft 250 kts 68°
2026-05-06 17:11 52.19399 12.84053 4840 ft 249 kts 68°
2026-05-06 17:11 52.20041 12.86680 4713 ft 249 kts 68°
2026-05-06 17:12 52.20680 12.89296 4609 ft 248 kts 68°
2026-05-06 17:12 52.21317 12.91906 4549 ft 247 kts 68°
2026-05-06 17:12 52.21953 12.94507 4456 ft 247 kts 68°
2026-05-06 17:12 52.22587 12.97110 4344 ft 247 kts 68°
2026-05-06 17:13 52.23220 12.99714 4225 ft 246 kts 68°
2026-05-06 17:13 52.23846 13.02289 4081 ft 244 kts 68°
2026-05-06 17:13 52.24471 13.04864 3969 ft 244 kts 68°
2026-05-06 17:13 52.25092 13.07427 3843 ft 243 kts 68°
2026-05-06 17:14 52.25709 13.09981 3715 ft 240 kts 68°
2026-05-06 17:14 52.26318 13.12502 3597 ft 236 kts 68°
2026-05-06 17:14 52.26907 13.14941 3473 ft 227 kts 68°
2026-05-06 17:14 52.27473 13.17291 3363 ft 217 kts 68°
2026-05-06 17:15 52.28009 13.19520 3250 ft 205 kts 68°
2026-05-06 17:15 52.28514 13.21623 3147 ft 193 kts 67°
2026-05-06 17:15 52.28990 13.23605 3064 ft 188 kts 68°
2026-05-06 17:15 52.29472 13.25608 2998 ft 187 kts 68°
2026-05-06 17:16 52.29935 13.27565 2749 ft 184 kts 68°
2026-05-06 17:16 52.30386 13.29458 2474 ft 172 kts 68°
2026-05-06 17:16 52.30804 13.31206 2237 ft 158 kts 67°
2026-05-06 17:16 52.31190 13.32816 2036 ft 147 kts 67°
2026-05-06 17:17 52.31550 13.34320 1840 ft 140 kts 67°
2026-05-06 17:17 52.31900 13.35779 1665 ft 137 kts 68°
2026-05-06 17:17 52.32246 13.37225 1472 ft 136 kts 67°
2026-05-06 17:17 52.32590 13.38662 1288 ft 136 kts 67°
2026-05-06 17:18 52.32933 13.40097 1089 ft 136 kts 68°
2026-05-06 17:18 52.33276 13.41532 900 ft 135 kts 68°
2026-05-06 17:18 52.33616 13.42959 705 ft 135 kts 68°
2026-05-06 17:18 52.33954 13.44381 515 ft 134 kts 68°
2026-05-06 17:19 52.34293 13.45780 353 ft 132 kts 68°
2026-05-06 17:19 52.34625 13.47179 168 ft 131 kts 68°
2026-05-06 17:19 52.34918 13.48404 154 ft 95 kts 69°
2026-05-06 17:19 52.35087 13.49143 154 ft 46 kts 68°
2026-05-06 17:20 52.35188 13.49554 154 ft 40 kts 68°
2026-05-06 17:20 52.35304 13.49884 154 ft 29 kts 48°
2026-05-06 17:20 52.35430 13.50067 154 ft 17 kts 38°
2026-05-06 17:20 52.35468 13.50117 154 ft 0 kts 39°
2026-05-06 17:21 52.35491 13.50147 154 ft 10 kts 39°
2026-05-06 17:22 52.35500 13.50159 154 ft 0 kts 38°
2026-05-06 17:23 52.35501 13.50160 154 ft 1 kts 38°
2026-05-06 17:24 52.35515 13.50178 154 ft 6 kts 38°
2026-05-06 17:24 52.35569 13.50249 154 ft 13 kts 39°
2026-05-06 17:24 52.35608 13.50335 155 ft 15 kts 68°
2026-05-06 17:24 52.35653 13.50525 155 ft 21 kts 69°
2026-05-06 17:25 52.35705 13.50745 155 ft 15 kts 69°
2026-05-06 17:25 52.35778 13.50825 155 ft 17 kts 336°
2026-05-06 17:25 52.35885 13.50754 155 ft 15 kts 339°
2026-05-06 17:25 52.35991 13.50688 155 ft 17 kts 339°
2026-05-06 17:26 52.36093 13.50623 155 ft 7 kts 339°
2026-05-06 17:26 52.36123 13.50689 155 ft 8 kts 69°
2026-05-06 17:26 52.36135 13.50741 155 ft 0 kts 69°
2026-05-06 17:26 52.36135 13.50742 155 ft 0 kts 69°